EW3867 Weather Reports


Display with metric or nautical units.
time (UTC)temp
F
wind
direction
speed
MPH
gust
MPH
rain 1hr
in
rain 24hr
in
rain mn
in
humidity
%
barometer
mb
20260906092130 56 348 0.0 0.0 0.00 0.00 0.00 42 1008.1
20260906091127 57 348 0.0 0.0 0.00 0.00 0.00 42 1008.2
20260906090133 57 348 1.0 7.0 0.00 0.00 0.00 41 1008.3
20260906085059 58 348 4.0 9.0 0.00 0.00 0.00 41 1008.3
20260906084035 56 346 0.0 9.0 0.00 0.00 0.00 44 1008.3
20260906083056 55 346 0.0 0.0 0.00 0.00 0.00 44 1008.4
20260906082111 56 346 0.0 0.0 0.00 0.00 0.00 43 1008.4
20260906081044 58 346 4.0 0.0 0.00 0.00 0.00 40 1008.4
20260906080057 59 345 6.0 9.0 0.00 0.00 0.00 39 1008.4
20260906075054 56 343 0.0 4.0 0.00 0.00 0.00 44 1008.4
20260906074038 56 343 0.0 0.0 0.00 0.00 0.00 43 1008.4
20260906073018 58 343 4.0 8.0 0.00 0.00 0.00 40 1008.3
20260906071956 58 341 3.0 5.0 0.00 0.00 0.00 40 1008.3
20260906071017 59 341 0.0 7.0 0.00 0.00 0.00 40 1008.3
20260906070011 58 341 0.0 0.0 0.00 0.00 0.00 41 1008.3
20260906065036 58 341 0.0 0.0 0.00 0.00 0.00 41 1008.3
20260906064039 59 341 0.0 0.0 0.00 0.00 0.00 41 1008.2
20260906063055 60 341 0.0 0.0 0.00 0.00 0.00 40 1008.3
20260906062022 61 341 0.0 0.0 0.00 0.00 0.00 39 1008.2
20260906055821 61 341 3.0 9.0 0.00 0.00 0.00 39 1008.3
20260906052624 62 341 1.0 7.0 0.00 0.00 0.00 39 1008.3
20260906051633 62 340 1.0 0.0 0.00 0.00 0.00 38 1008.3
20260906050623 63 340 4.0 8.0 0.00 0.00 0.00 38 1008.3
20260906045609 63 340 0.0 5.0 0.00 0.00 0.00 37 1008.2
20260906044550 64 340 4.0 7.0 0.00 0.00 0.00 35 1008.3
20260906043528 64 340 4.0 9.0 0.00 0.00 0.00 35 1008.3
20260906042545 65 339 7.0 10.0 0.00 0.00 0.00 35 1008.3
20260906041557 64 334 4.0 9.0 0.00 0.00 0.00 36 1008.3
20260906035426 66 0 0.0 7.0 0.00 0.00 0.00 34 1008.2
20260906034427 66 0 0.0 0.0 0.00 0.00 0.00 34 1008.1
20260906033412 66 0 0.0 2.0 0.00 0.00 0.00 35 1008.0
20260906032405 65 0 0.0 0.0 0.00 0.00 0.00 36 1007.9
20260906031356 65 269 0.0 0.0 0.00 0.00 0.00 36 1007.8
20260906030405 66 269 0.0 0.0 0.00 0.00 0.00 35 1007.7
20260906024306 67 269 0.0 0.0 0.00 0.00 0.00 34 1007.5
20260906023324 68 269 0.0 0.0 0.00 0.00 0.00 33 1007.2
20260906022322 69 269 0.0 0.0 0.00 0.00 0.00 32 1007.1
20260906021255 71 269 0.0 0.0 0.00 0.00 0.00 30 1006.9
20260906020310 73 269 0.0 1.0 0.00 0.00 0.00 27 1006.9
20260906015236 74 269 0.0 0.0 0.00 0.00 0.00 27 1006.7
20260906014253 75 269 0.0 0.0 0.00 0.00 0.00 26 1006.6
20260906005839 78 253 0.0 11.0 0.00 0.00 0.00 24 1006.4
20260906004816 79 258 3.0 11.0 0.00 0.00 0.00 25 1006.3
20260906001511 80 238 0.0 5.0 0.00 0.00 0.00 23 1006.2
20260906000525 80 240 1.0 0.0 0.00 0.00 0.00 23 1006.3
20260905235515 82 229 3.0 10.0 0.00 0.00 0.00 23 1006.3
20260905234516 83 223 1.0 10.0 0.00 0.00 0.00 22 1006.1
20260905233516 83 0 1.0 2.0 0.00 0.00 0.00 22 1006.3
20260905232445 83 242 0.0 8.0 0.00 0.00 0.00 22 1006.3
20260905231421 83 240 0.0 6.0 0.00 0.00 0.00 22 1006.3
20260905230446 82 247 1.0 3.0 0.00 0.00 0.00 21 1006.4
20260905224242 83 259 0.0 0.0 0.00 0.00 0.00 22 1006.3
20260905223247 83 0 4.0 0.0 0.00 0.00 0.00 22 1006.3
20260905222245 83 0 1.0 10.0 0.00 0.00 0.00 23 1006.4
20260905221307 83 257 3.0 15.0 0.00 0.00 0.00 24 1006.4
20260905220317 84 257 4.0 14.0 0.00 0.00 0.00 25 1006.6
20260905214205 84 256 0.0 0.0 0.00 0.00 0.00 26 1006.9
20260905213200 83 252 3.0 10.0 0.00 0.00 0.00 26 1007.0
20260905212221 83 192 3.0 12.0 0.00 0.00 0.00 27 1007.1
20260905211241 83 244 4.0 14.0 0.00 0.00 0.00 27 1007.3
20260905210259 83 244 1.0 14.0 0.00 0.00 0.00 28 1007.4
20260905205311 83 252 3.0 11.0 0.00 0.00 0.00 28 1007.5
20260905204255 82 342 4.0 2.0 0.00 0.00 0.00 29 1007.7
20260905203238 82 261 3.0 13.0 0.00 0.00 0.00 29 1007.7
20260905202231 80 16 1.0 12.0 0.00 0.00 0.00 31 1007.7
20260905201243 81 206 4.0 14.0 0.00 0.00 0.00 30 1007.9
20260905200213 82 0 0.0 8.0 0.00 0.00 0.00 29 1007.9
20260905195233 82 202 0.0 0.0 0.00 0.00 0.00 30 1008.0
20260905194226 82 238 4.0 13.0 0.00 0.00 0.00 30 1008.1
20260905193152 82 237 3.0 21.0 0.00 0.00 0.00 30 1008.1
20260905192129 81 189 1.0 10.0 0.00 0.00 0.00 31 1008.3
20260905191148 80 208 4.0 13.0 0.00 0.00 0.00 33 1008.5
20260905190149 80 0 4.0 13.0 0.00 0.00 0.00 33 1008.6
20260905183958 79 0 4.0 14.0 0.00 0.00 0.00 34 1009.0
20260905182958 79 0 3.0 0.0 0.00 0.00 0.00 34 1009.1
20260905182004 79 270 0.0 2.0 0.00 0.00 0.00 34 1009.2
20260905181015 78 255 3.0 12.0 0.00 0.00 0.00 34 1009.5
20260905175956 77 0 1.0 12.0 0.00 0.00 0.00 36 1009.7
20260905175020 77 243 4.0 13.0 0.00 0.00 0.00 35 1009.9
20260905172850 78 236 1.0 11.0 0.00 0.00 0.00 36 1009.9
20260905165545 77 256 3.0 7.0 0.00 0.00 0.00 36 1010.2
20260905164544 76 264 1.0 0.0 0.00 0.00 0.00 36 1010.2
20260905162424 75 271 0.0 2.0 0.00 0.00 0.00 37 1010.2
20260905161415 75 271 0.0 0.0 0.00 0.00 0.00 38 1010.1
20260905155313 74 261 0.0 8.0 0.00 0.00 0.00 38 1010.0
20260905154251 74 270 0.0 0.0 0.00 0.00 0.00 39 1010.0
20260905153257 73 273 0.0 8.0 0.00 0.00 0.00 39 1010.0
20260905151129 73 271 0.0 0.0 0.00 0.00 0.00 41 1010.0
20260905145027 70 271 0.0 1.0 0.00 0.00 0.00 45 1010.1
20260905144037 68 271 0.0 0.0 0.00 0.00 0.00 50 1010.0
20260905143047 67 271 0.0 0.0 0.00 0.00 0.00 50 1010.2
20260905142015 65 271 0.0 0.0 0.00 0.00 0.00 52 1010.2
20260905141023 63 271 0.0 0.0 0.00 0.00 0.00 57 1010.2
20260905134806 59 271 0.0 0.0 0.00 0.00 0.00 60 1009.9
20260905133805 58 271 0.0 0.0 0.00 0.00 0.00 62 1009.9
20260905132807 57 271 0.0 0.0 0.00 0.00 0.00 62 1009.7
20260905130635 55 252 0.0 1.0 0.00 0.00 0.00 67 1009.6
20260905124505 53 252 0.0 0.0 0.00 0.00 0.00 69 1009.3
20260905123513 53 252 0.0 0.0 0.00 0.00 0.00 69 1009.1
20260905121323 54 252 0.0 0.0 0.00 0.00 0.00 67 1009.1
20260905120344 54 252 0.0 1.0 0.00 0.00 0.00 68 1008.9
20260905114159 53 252 0.0 0.0 0.00 0.00 0.00 69 1008.9
20260905113205 54 252 0.0 0.0 0.00 0.00 0.00 69 1008.9
20260905112157 53 252 0.0 0.0 0.00 0.00 0.00 70 1008.9
20260905111134 53 252 0.0 0.0 0.00 0.00 0.00 69 1008.9
20260905110127 54 252 0.0 0.0 0.00 0.00 0.00 67 1008.7
20260905105146 53 252 0.0 0.0 0.00 0.00 0.00 68 1008.7
20260905103006 55 252 0.0 0.0 0.00 0.00 0.00 64 1008.4
20260905101934 56 252 0.0 0.0 0.00 0.00 0.00 63 1008.4
20260905100910 55 252 0.0 0.0 0.00 0.00 0.00 64 1008.3
20260905095837 55 252 0.0 0.0 0.00 0.00 0.00 64 1008.1
20260905094805 57 252 0.0 0.0 0.00 0.00 0.00 61 1008.0
20260905093817 58 252 0.0 0.0 0.00 0.00 0.00 61 1007.9
20260905092842 59 252 0.0 0.0 0.00 0.00 0.00 59 1007.7